Content
SEND FEEDBACK

Daily
Averages
Monthly
Summary
Malaysia

KOTA KINABALU, MALAYSIA


Home > Asia > Malaysia
Elevation: 10 feet     Latitude: 05 55N     Longitude: 116 03E

WEATHER
 
SELECT A DAY
Number of Records: 279,838;   Date Range: 8/9/96 - 11/27/14
 
SHARE

PRINT THIS DATA

[ ← Previous Day ]
WEATHER ALMANAC - MARCH 1, 2013
[ Next Day → ]
[ °C ]   °F
Weather ElementAverageHighLow
Temperature82.1 °F89.6 °F (1:00 pm)73.4 °F (6:00 am)
Dewpoint76.4 °F80.6 °F (12:00 pm)71.6 °F (6:30 am)
Humidity83 %100 % (6:00 am)66 % (10:30 am)
Barometer29.83 in29.89 in (9:30 am)29.77 in (3:00 pm)
Wind Speed4.5 mph9.2 mph (2:00 pm)
Weather ElementAverage
Visibility7.3 mi
Wind DirectionSSW (198.9 °)

Weather ElementTotal
Precipitation---
Cooling Degree Days16.5 (Base 65)
Growing Degree Days31.5 (Base 50)
Averaged from 55 records on March 1, 2013
WEATHER CONDITIONS BREAKOUT
WIND DIRECTION BREAKOUT
WEATHER BY HOUR - MARCH 1, 2013
[ °C ]   °F
Local TimeTemperatureDewpointHumidityBarometerVisibilityWind DirectionWind SpeedGust SpeedPrecipitationEventsConditions
12:30 AM77.0 °F73.4 °F89 %29.83 in6.2 miESE (110°)4.6 mphMostly Cloudy
1:00 AM77.0 °F73.4 °F89 %29.83 in6.2 miESE (120°)5.8 mphMostly Cloudy
1:30 AM75.2 °F73.4 °F94 %29.83 in6.2 miEast (100°)5.8 mphMostly Cloudy
2:00 AM76.0 °F73.0 °F88 %29.83 in11.0 miEast (100°)5.8 mphScattered Clouds
2:00 AM75.2 °F73.4 °F94 %29.83 in6.2 miEast (100°)5.8 mphMostly Cloudy
2:30 AM75.2 °F73.4 °F94 %29.83 in6.2 miEast (90°)6.9 mphMostly Cloudy
3:00 AM75.2 °F73.4 °F94 %29.80 in6.2 miNE (40°)2.3 mphMostly Cloudy
3:30 AM75.2 °F73.4 °F94 %29.80 in6.2 miEast (80°)3.5 mphMostly Cloudy
4:00 AM75.2 °F73.4 °F94 %29.80 in6.2 miSE (130°)2.3 mphMostly Cloudy
4:30 AM75.2 °F73.4 °F94 %29.83 in6.2 miEast (100°)3.5 mphMostly Cloudy
5:00 AM75.0 °F72.0 °F89 %29.83 in11.0 miSE (140°)3.5 mphScattered Clouds
5:00 AM75.2 °F73.4 °F94 %29.83 in6.2 miSE (140°)3.5 mphMostly Cloudy
5:30 AM75.2 °F73.4 °F94 %29.83 in6.2 miESE (120°)3.5 mphMostly Cloudy
6:00 AM73.4 °F73.4 °F100 %29.83 in6.2 miESE (110°)2.3 mphMostly Cloudy
6:30 AM75.2 °F71.6 °F89 %29.86 in6.2 miESE (110°)3.5 mphMostly Cloudy
7:00 AM75.2 °F73.4 °F94 %29.86 in6.2 miESE (110°)4.6 mphMostly Cloudy
7:30 AM78.8 °F73.4 °F83 %29.86 in6.2 miESE (110°)5.8 mphMostly Cloudy
8:00 AM81.0 °F74.0 °F75 %29.87 in19.0 miEast (100°)4.6 mphPartly Cloudy
8:00 AM80.6 °F75.2 °F84 %29.86 in6.2 miEast (100°)4.6 mphMostly Cloudy
8:30 AM82.4 °F75.2 °F79 %29.86 in6.2 miEast (90°)3.5 mphMostly Cloudy
9:00 AM84.2 °F75.2 °F74 %29.86 in6.2 miENE (60°)2.3 mphMostly Cloudy
9:30 AM86.0 °F77.0 °F74 %29.89 in6.2 miNorth (350°)3.5 mphMostly Cloudy
10:00 AM86.0 °F75.2 °F70 %29.86 in6.2 miNNW (340°)4.6 mphMostly Cloudy
10:30 AM87.8 °F75.2 °F66 %29.86 in6.2 miNW (320°)5.8 mphMostly Cloudy
11:00 AM86.0 °F78.0 °F73 %29.87 in17.0 miNW (320°)5.8 mphScattered Clouds
11:00 AM86.0 °F78.8 °F79 %29.86 in6.2 miNW (320°)5.8 mphMostly Cloudy
11:30 AM87.8 °F78.8 °F75 %29.86 in6.2 miWNW (300°)3.5 mphMostly Cloudy
12:00 PM87.8 °F80.6 °F79 %29.83 in6.2 miNW (310°)5.8 mphMostly Cloudy
12:30 PM87.8 °F80.6 °F79 %29.83 in6.2 miNW (310°)4.6 mphMostly Cloudy
1:00 PM89.6 °F80.6 °F75 %29.83 in6.2 miNW (310°)5.8 mphMostly Cloudy
1:30 PM87.8 °F78.8 °F75 %29.83 in6.2 miNW (310°)6.9 mphMostly Cloudy
2:00 PM88.0 °F78.0 °F67 %29.81 in17.0 miNW (320°)9.2 mphScattered Clouds
2:00 PM87.8 °F78.8 °F75 %29.80 in6.2 miNW (320°)9.2 mphMostly Cloudy
2:30 PM87.8 °F78.8 °F75 %29.80 in6.2 miNW (310°)6.9 mphMostly Cloudy
3:00 PM87.8 °F78.8 °F75 %29.77 in6.2 miNW (320°)6.9 mphMostly Cloudy
3:30 PM87.8 °F78.8 °F75 %29.77 in6.2 miNW (310°)4.6 mphMostly Cloudy
4:00 PM86.0 °F77.0 °F74 %29.77 in6.2 miNW (310°)4.6 mphMostly Cloudy
4:30 PM87.8 °F78.8 °F75 %29.77 in6.2 miWNW (300°)3.5 mphMostly Cloudy
5:00 PM87.0 °F80.0 °F75 %29.78 in14.0 miNW (310°)3.5 mphScattered Clouds
5:00 PM87.8 °F80.6 °F79 %29.77 in6.2 miNW (310°)3.5 mphMostly Cloudy
5:30 PM87.8 °F80.6 °F79 %29.77 in6.2 miWNW (300°)3.5 mphMostly Cloudy
6:00 PM86.0 °F78.8 °F79 %29.80 in6.2 miWNW (300°)2.3 mphMostly Cloudy
6:30 PM86.0 °F78.8 °F79 %29.80 in6.2 miWNW (290°)1.2 mphMostly Cloudy
7:00 PM84.2 °F78.8 °F84 %29.80 in6.2 miCalmMostly Cloudy
7:30 PM84.2 °F78.8 °F84 %29.80 in6.2 miSW (220°)1.2 mphMostly Cloudy
8:00 PM83.0 °F78.0 °F82 %29.82 in11.0 miSSW (210°)3.5 mphPartly Cloudy
8:00 PM82.4 °F78.8 °F89 %29.80 in6.2 miSSW (210°)3.5 mphMostly Cloudy
8:30 PM84.2 °F78.8 °F84 %29.83 in6.2 miSW (220°)5.8 mphMostly Cloudy
9:00 PM82.4 °F78.8 °F89 %29.83 in6.2 miSSW (200°)6.9 mphMostly Cloudy
9:30 PM80.6 °F77.0 °F89 %29.86 in6.2 miSouth (190°)5.8 mphMostly Cloudy
10:00 PM80.6 °F77.0 °F89 %29.86 in6.2 miESE (120°)4.6 mphMostly Cloudy
10:30 PM80.6 °F77.0 °F89 %29.86 in6.2 miSE (130°)4.6 mphMostly Cloudy
11:00 PM80.0 °F76.0 °F84 %29.87 in11.0 miSE (140°)3.5 mphPartly Cloudy
11:00 PM80.6 °F75.2 °F84 %29.86 in6.2 miSE (140°)3.5 mphMostly Cloudy
11:30 PM78.8 °F75.2 °F89 %29.86 in6.2 miESE (110°)3.5 mphMostly Cloudy
Hourly data recorded from WBKK, located miles away from Kota Kinabalu, Malaysia







STORIES FROM OUR PARTNERS